This is the latest recevied weather packets stored in our database for station/object EA3HRE-13. If no packets are shown the sender has not sent any weather packets the latest 10 day(s).
| Time | Temp. | Humidity | Pressure | Rain* | Wind** | Luminosity | Snow |
|---|---|---|---|---|---|---|---|
| 1777981717 | 22.22° C | 100% | 1011.5 hPa | 0 mm | - | - | - |
| 1777981117 | 22.22° C | 100% | 1011.6 hPa | 0 mm | - | - | - |
| 1777980517 | 22.22° C | 100% | 1011.6 hPa | 0 mm | - | - | - |
| 1777979917 | 21.67° C | 100% | 1011.8 hPa | 0 mm | - | - | - |
| 1777979317 | 21.67° C | 100% | 1011.8 hPa | 0 mm | - | - | - |
| 1777978717 | 21.67° C | 100% | 1011.7 hPa | 0 mm | - | - | - |
| 1777978087 | 22.78° C | 100% | 1011.8 hPa | 0 mm | - | - | - |
| 1777977456 | 22.78° C | 100% | 1011.7 hPa | 0 mm | - | - | - |
| 1777976856 | 22.22° C | 100% | 1011.8 hPa | 0 mm | - | - | - |
| 1777976256 | 21.11° C | 100% | 1011.9 hPa | 0 mm | - | - | - |
| 1777975656 | 20.56° C | 100% | 1011.8 hPa | 0 mm | - | - | - |
| 1777975056 | 20° C | 100% | 1012 hPa | 0 mm | - | - | - |
| 1777974456 | 19.44° C | 100% | 1012 hPa | 0 mm | - | - | - |
| 1777973856 | 19.44° C | 100% | 1012 hPa | 0 mm | - | - | - |
| 1777973256 | 18.89° C | 100% | 1012.2 hPa | 0 mm | - | - | - |
| 1777972656 | 19.44° C | 100% | 1012.2 hPa | 0 mm | - | - | - |
| 1777972056 | 18.89° C | 100% | 1012.3 hPa | 0 mm | - | - | - |
| 1777971456 | 18.33° C | 100% | 1012.2 hPa | 0 mm | - | - | - |
| 1777970856 | 17.78° C | 100% | 1012 hPa | 0 mm | - | - | - |
| 1777970256 | 16.67° C | 100% | 1012.3 hPa | 0 mm | - | - | - |
| 1777969656 | 16.11° C | 100% | 1012.1 hPa | 0 mm | - | - | - |
| 1777969055 | 16.11° C | 100% | 1012.1 hPa | 0 mm | - | - | - |
| 1777968455 | 15.56° C | 100% | 1012.2 hPa | 0 mm | - | - | - |
| 1777967825 | 15° C | 100% | 1012.3 hPa | 0 mm | - | - | - |
| 1777967225 | 15° C | 100% | 1012.3 hPa | 0 mm | - | - | - |
* Rain latest hour (hover to see other rain measurements)
** Current wind speed in m/s (hover to see current wind gust speed)